Location: Derby
(52.9213°N, 1.4761°W)
Time: 16:18:50
(UTC+01:00)

Vanguard 1 - Pass Details

Date: 27 May 2025
Orbit: 649 x 3822 km, 34.3° (Epoch: 14 June)

Event Time Altitude Azimuth Distance (km) Brightness Sun altitude
Rises 20:34:23 0° 265° (W) 7,340 15.5 4.3°
Reaches altitude 10° 20:40:53 10° 256° (WSW) 5,840 14.8 3.4°
Maximum altitude 20:53:02 26° 209° (SSW) 3,485 12.9 1.9°
Drops below altitude 10° 21:00:57 10° 157° (SSE) 3,710 12.5 0.9°
Sets 21:04:00 0° 144° (SE) 4,314 12.7 0.5°
